2019-038R (44401 NORAD) Tracking and Keplerian Element Data

This shows tracking and keplerian element data for the satellite.

Feedback or suggestion? Click here.




ElementValue
Catalog44401
Name2019-038R
Epoch Orbit429
Epoch Day214.89506271
Epoch Year2019
RAAN176.2901
Inclination97.4917
Eccentricity0.0026211
Argument of Perigee143.0171
Mean Anonmoly217.2873
Mean Motion15.11730849
Decay Rate4.81E-06
L11 44401U 19038R 19214.89506271 .00000481 00000-0 31809-4 0 9997
L22 44401 97.4917 176.2901 0026211 143.0171 217.2873 15.11730849 4291

Live tracking and technical data element details for 2019-038R (NORAD 44401). 2019-038R can be tracked NOW for your location showing map with azimuth and elevation plus other details from your city location.

Track the satellite on the map from your city or location and see movement details for azimuth, elevation, latitude, longitude, range, height, and movement on the map or in text.







IsCatalogInMostPopularTable: catalog: 44401, numindb: 17
Update: records affected: 1



GetName: 44401 2019-038R

Hit Count: updated at: Thu, 05 Dec 2019 16:59:46 GMT